Oak Harbor, WA

10:48 AM PDT on July 27, 2016 (GMT -0700)
Whidbey Island Naval Air Station

Weather History for KNUW - June, 2013

Change the Weather History Date:

Sunday, June 16, 2013

  Actual Average Record
Temperature  
Mean Temperature 57 °F -  
Max Temperature 64 °F 61 °F 70 °F (1997)
Min Temperature 51 °F 48 °F 44 °F (2003)
Degree Days  
Heating Degree Days 8    
Growing Degree Days 7 (Base 50)    
Moisture  
Dew Point 50 °F    
Average Humidity 78    
Maximum Humidity 89    
Minimum Humidity 65    
Precipitation  
Precipitation 0.01 in - - ()
Sea Level Pressure  
Sea Level Pressure 30.08 in    
Wind  
Wind Speed 7 mph (SW)    
Max Wind Speed 16 mph    
Max Gust Speed 23 mph    
Visibility 10 miles    
Events Rain    
Averages and records for this station are not official NWS values.
T = Trace of Precipitation, MM = Missing Value Source: NWS Daily Summary

Daily Weather History Graph

Daily Weather History Graph

Search for Another Location

Airport or City:

Trip Planner

Search our weather history database for the weather conditions in past years. The results will help you decide how hot, cold, wet, or windy it might be!

Date:

Astronomy

Jun. 16, 2013 Rise Set
Actual Time 5:08 AM PDT 9:14 PM PDT
Civil Twilight 4:27 AM PDT 9:55 PM PDT
Nautical Twilight 3:28 AM PDT 10:54 PM PDT
Astronomical Twilight 1:40 AM PDT 12:44 AM PDT
Moon 1:26 PM PDT (6/16) 12:48 AM PDT (6/16)
Length of Visible Light 17h 28m
Length of Day
16h 05m
Waxing Crescent, 51% of the Moon is Illuminated
Jun 16
Waxing Crescent
Jun 23
Full
Jun 29
Last Quarter
Jul 8
New
Jul 15
First Quarter

Hourly Weather History & Observations

Time (PDT) Temp. Dew Point Humidity Pressure Visibility Wind Dir Wind Speed Gust Speed Precip Events Conditions
12:56 AM 51.1 °F 48.0 °F 89% 30.02 in 10.0 mi Calm Calm - N/A   Clear
1:56 AM 51.1 °F 48.0 °F 89% 30.03 in 10.0 mi Calm Calm - N/A   Clear
2:56 AM 51.1 °F 46.9 °F 86% 30.04 in 10.0 mi SE 4.6 mph - N/A   Clear
3:56 AM 54.0 °F 48.0 °F 80% 30.04 in 10.0 mi South 5.8 mph - N/A   Partly Cloudy
4:56 AM 55.0 °F 48.0 °F 77% 30.05 in 10.0 mi SSW 5.8 mph - N/A   Scattered Clouds
5:56 AM 54.0 °F 50.0 °F 86% 30.06 in 10.0 mi SW 5.8 mph - N/A   Scattered Clouds
6:56 AM 55.0 °F 51.1 °F 86% 30.08 in 10.0 mi SSW 5.8 mph - N/A   Scattered Clouds
7:56 AM 55.0 °F 51.1 °F 86% 30.09 in 10.0 mi SW 8.1 mph - N/A   Scattered Clouds
8:56 AM 55.9 °F 51.1 °F 84% 30.10 in 10.0 mi WSW 9.2 mph - N/A   Mostly Cloudy
9:56 AM 57.9 °F 52.0 °F 81% 30.10 in 10.0 mi WSW 8.1 mph - N/A   Mostly Cloudy
10:56 AM 57.9 °F 51.1 °F 78% 30.10 in 10.0 mi WSW 9.2 mph - N/A   Mostly Cloudy
11:56 AM 59.0 °F 51.1 °F 75% 30.10 in 10.0 mi WSW 8.1 mph - N/A   Mostly Cloudy
12:56 PM 60.1 °F 52.0 °F 75% 30.09 in 10.0 mi WSW 8.1 mph - N/A   Mostly Cloudy
1:56 PM 61.0 °F 52.0 °F 72% 30.08 in 10.0 mi WSW 11.5 mph - N/A   Mostly Cloudy
2:56 PM 60.1 °F 51.1 °F 72% 30.08 in 10.0 mi WSW 11.5 mph - N/A   Mostly Cloudy
3:56 PM 63.0 °F 52.0 °F 67% 30.07 in 10.0 mi SW 12.7 mph - N/A   Mostly Cloudy
4:56 PM 61.0 °F 51.1 °F 70% 30.06 in 10.0 mi SW 11.5 mph - N/A   Mostly Cloudy
5:40 PM 60.8 °F 51.8 °F 72% 30.06 in 10.0 mi SW 13.8 mph - 0.00 in Rain Light Rain
5:56 PM 63.0 °F 51.1 °F 65% 30.08 in 10.0 mi SW 16.1 mph 23.0 mph 0.00 in   Mostly Cloudy
6:37 PM 59.0 °F 51.8 °F 77% 30.07 in 10.0 mi SSW 9.2 mph - 0.01 in Rain Light Rain
6:56 PM 62.1 °F 51.1 °F 67% 30.08 in 10.0 mi SW 13.8 mph - 0.01 in   Mostly Cloudy
7:56 PM 57.0 °F 48.9 °F 74% 30.09 in 10.0 mi SW 12.7 mph 21.9 mph N/A   Mostly Cloudy
8:56 PM 55.9 °F 48.0 °F 75% 30.09 in 10.0 mi WSW 13.8 mph 19.6 mph N/A   Mostly Cloudy
9:56 PM 55.0 °F 48.0 °F 77% 30.10 in 10.0 mi WSW 8.1 mph - N/A   Mostly Cloudy
10:56 PM 54.0 °F 48.0 °F 80% 30.11 in 10.0 mi WSW 12.7 mph - N/A   Mostly Cloudy
11:56 PM 54.0 °F 48.0 °F 80% 30.10 in 10.0 mi SW 6.9 mph - N/A   Mostly Cloudy